TimeEDT,TemperatureF,Dew PointF,Humidity,Sea Level PressureIn,VisibilityMPH,Wind Direction,Wind SpeedMPH,Gust SpeedMPH,PrecipitationIn,Events,Conditions,WindDirDegrees,DateUTC
12:14 AM,71.1,69.1,93,30.11,10.0,SSW,12.7,-,N/A,,Overcast,200,2013-07-02 04:14:00
12:54 AM,71.1,70.0,96,30.09,10.0,SSW,11.5,-,0.00,,Overcast,210,2013-07-02 04:54:00
1:54 AM,71.1,69.1,93,30.10,9.0,SSW,11.5,-,0.00,Rain,Light Rain,210,2013-07-02 05:54:00
2:54 AM,71.1,70.0,96,30.10,10.0,SW,11.5,-,0.00,,Overcast,220,2013-07-02 06:54:00
3:54 AM,71.1,69.1,93,30.11,10.0,SW,13.8,-,0.00,,Overcast,220,2013-07-02 07:54:00
4:54 AM,71.1,69.1,93,30.12,10.0,SSW,9.2,-,0.00,,Overcast,210,2013-07-02 08:54:00
5:54 AM,71.1,69.1,93,30.13,10.0,SSW,8.1,-,0.00,,Overcast,210,2013-07-02 09:54:00
6:54 AM,71.1,70.0,96,30.14,10.0,SSW,8.1,-,N/A,,Overcast,200,2013-07-02 10:54:00
7:54 AM,71.1,70.0,96,30.15,10.0,SSW,8.1,-,0.00,,Overcast,200,2013-07-02 11:54:00
7:59 AM,71.1,70.0,96,30.16,10.0,South,9.2,-,N/A,,Overcast,190,2013-07-02 11:59:00
8:54 AM,73.0,70.0,90,30.15,10.0,SSW,11.5,-,N/A,,Overcast,210,2013-07-02 12:54:00
10:54 AM,75.0,70.0,84,30.16,10.0,SSW,10.4,-,N/A,,Overcast,200,2013-07-02 14:54:00
11:03 AM,75.0,70.0,84,30.18,10.0,SSW,9.2,19.6,N/A,,Overcast,210,2013-07-02 15:03:00
11:54 AM,75.0,70.0,84,30.17,10.0,SSW,12.7,-,N/A,,Overcast,200,2013-07-02 15:54:00
12:01 PM,75.0,70.0,84,30.18,10.0,SSW,10.4,-,N/A,,Overcast,210,2013-07-02 16:01:00
12:17 PM,75.0,70.0,84,30.18,10.0,SSW,11.5,-,N/A,,Overcast,210,2013-07-02 16:17:00
12:25 PM,75.9,70.0,82,30.18,10.0,SSW,13.8,-,N/A,,Mostly Cloudy,210,2013-07-02 16:25:00
12:54 PM,77.0,70.0,79,30.17,10.0,SSW,11.5,-,N/A,,Overcast,200,2013-07-02 16:54:00
1:54 PM,77.0,70.0,79,30.17,10.0,SW,10.4,-,N/A,,Overcast,220,2013-07-02 17:54:00
2:54 PM,78.1,69.1,74,30.16,10.0,SW,15.0,-,N/A,,Mostly Cloudy,230,2013-07-02 18:54:00
3:54 PM,78.1,69.1,74,30.15,10.0,SSW,11.5,-,N/A,,Overcast,210,2013-07-02 19:54:00
4:09 PM,78.1,70.0,76,30.16,10.0,SSW,6.9,-,N/A,,Overcast,210,2013-07-02 20:09:00
4:17 PM,78.1,70.0,76,30.16,10.0,SSW,9.2,-,N/A,,Overcast,200,2013-07-02 20:17:00
4:54 PM,78.1,70.0,76,30.14,10.0,SSW,9.2,-,N/A,,Mostly Cloudy,200,2013-07-02 20:54:00
5:54 PM,78.1,70.0,76,30.15,10.0,SSW,9.2,-,N/A,,Mostly Cloudy,200,2013-07-02 21:54:00
6:54 PM,78.1,69.1,74,30.16,10.0,SSW,11.5,-,N/A,,Partly Cloudy,200,2013-07-02 22:54:00
7:54 PM,75.0,70.0,84,30.17,10.0,SSW,6.9,-,N/A,,Clear,200,2013-07-02 23:54:00
8:54 PM,73.9,69.1,85,30.19,10.0,South,6.9,-,N/A,,Mostly Cloudy,190,2013-07-03 00:54:00
9:35 PM,73.0,70.0,90,30.21,10.0,South,10.4,-,N/A,,Overcast,180,2013-07-03 01:35:00
9:54 PM,73.0,70.0,90,30.20,10.0,SSW,11.5,-,N/A,,Overcast,200,2013-07-03 01:54:00
10:54 PM,72.0,69.1,91,30.20,10.0,SSW,6.9,-,N/A,,Overcast,210,2013-07-03 02:54:00
11:54 PM,72.0,70.0,93,30.20,10.0,SSW,5.8,-,N/A,,Overcast,200,2013-07-03 03:54:00